Location: Las Callecitas
(9.8750°N, 67.4611°W)
Time: 03:01:28
(UTC+00:00)

Cosmos 1943 - Visible Passes

Search period start: 19 July 2024 00:00
Search period end: 29 July 2024 00:00
Orbit: 834 x 847 km, 71.0° (Epoch: 18 July)

Date Brightness Start Highest point End Pass type
(mag) Time Alt. Az. Time Alt. Az. Time Alt. Az.
19 Jul 3.7 00:05:35 10° N 00:10:47 39° ENE 00:12:27 31° ESE visible
19 Jul 5.6 01:51:28 10° WNW 01:54:18 15° WSW 01:54:18 15° WSW visible
19 Jul 3.8 23:50:18 10° N 23:55:25 36° ENE 23:58:13 22° ESE visible
20 Jul 5.5 01:35:47 10° WNW 01:39:04 16° WSW 01:40:03 15° WSW visible
20 Jul 3.9 23:35:01 10° N 23:40:02 33° ENE 23:44:04 15° SE visible
21 Jul 5.5 01:20:08 10° WNW 01:23:42 17° WSW 01:25:55 14° SW visible
21 Jul 4.0 23:19:46 10° NNE 23:24:40 31° ENE 23:29:34 10° SE visible
22 Jul 5.5 01:04:31 10° WNW 01:08:21 19° WSW 01:11:51 11° SW visible
23 Jul 5.4 00:48:56 10° WNW 00:52:59 20° WSW 00:57:03 10° SSW visible
24 Jul 5.3 00:33:22 10° NW 00:37:37 22° WSW 00:41:53 10° SSW visible
25 Jul 5.3 00:17:50 10° NW 00:22:15 24° WSW 00:26:43 10° SSW visible
26 Jul 5.2 00:02:19 10° NW 00:06:54 26° WSW 00:11:30 10° SSW visible
26 Jul 5.2 23:46:48 10° NW 23:51:31 28° WSW 23:56:17 10° SSW visible
27 Jul 5.1 23:31:18 10° NW 23:36:10 30° WSW 23:41:03 10° SSW visible
28 Jul 5.0 23:15:49 10° NW 23:20:47 33° WSW 23:25:48 10° SSW visible
